When you browse on this site, cookies collect data to enhance your experience and personalize the content and advertising you see.
Visit our Privacy Policy to learn more. By continuing to use the site, you agree to this use of cookies and data.
  • In Deutschland
  • Länderverzeichnis
  • Für 7 Tage
  • Wassertemperatur
  • Wetterkarte
  • Widgets
  • user-avatar
    Anmelden

    Stündliche Wetter Hamburg

    Heute, 15 Oktober, Dienstag

    Zeit Temperatur Niederschläge Wind Luftdruck Luftfeuchtigkeit
    00:00 +13°C° 0 mm 4 m/S 756 mmHg 92%
    01:00 +13°C° 0 mm 4 m/S 756 mmHg 94%
    02:00 +13°C° 0 mm 3 m/S 755 mmHg 94%
    03:00 +13°C° 0 mm 3 m/S 754 mmHg 95%
    04:00 +14°C° 0 mm 2 m/S 754 mmHg 96%
    05:00 +14°C° 0 mm 2 m/S 754 mmHg 96%
    06:00 +14°C° 0 mm 2 m/S 754 mmHg 95%
    07:00 +14°C° 0 mm 2 m/S 753 mmHg 95%
    08:00 +15°C° 0 mm 2 m/S 753 mmHg 91%
    09:00 +16°C° 0 mm 2 m/S 753 mmHg 87%
    10:00 +18°C° 0 mm 2 m/S 753 mmHg 83%
    11:00 +19°C° 0 mm 2 m/S 753 mmHg 80%
    12:00 +20°C° 0 mm 2 m/S 753 mmHg 77%
    13:00 +22°C° 0 mm 1 m/S 753 mmHg 73%
    14:00 +22°C° 0 mm 1 m/S 753 mmHg 75%
    15:00 +21°C° 0 mm 1 m/S 753 mmHg 77%
    16:00 +21°C° 0 mm 1 m/S 752 mmHg 79%
    17:00 +20°C° 0 mm 1 m/S 752 mmHg 83%
    18:00 +19°C° 0 mm 1 m/S 753 mmHg 88%
    19:00 +16°C° 0 mm 1 m/S 753 mmHg 92%
    20:00 +16°C° 0 mm 1 m/S 753 mmHg 94%
    21:00 +15°C° 0 mm 1 m/S 752 mmHg 95%
    22:00 +15°C° 0 mm 2 m/S 752 mmHg 96%
    23:00 +15°C° 0 mm 2 m/S 752 mmHg 96%

    Morgen, 16 Oktober, Mittwoch

    Zeit Temperatur Niederschläge Wind Luftdruck Luftfeuchtigkeit
    00:00 +15°C° 0 mm 2 m/S 752 mmHg 96%
    01:00 +15°C° 0 mm 2 m/S 752 mmHg 96%
    02:00 +14°C° 1.8 mm 2 m/S 752 mmHg 96%
    03:00 +13°C° 1.8 mm 3 m/S 752 mmHg 96%
    04:00 +13°C° 1.8 mm 3 m/S 752 mmHg 96%
    05:00 +13°C° 2.1 mm 4 m/S 752 mmHg 95%
    06:00 +13°C° 2.1 mm 5 m/S 752 mmHg 94%
    07:00 +11°C° 2.1 mm 6 m/S 752 mmHg 93%
    08:00 +11°C° 2.5 mm 6 m/S 753 mmHg 93%
    09:00 +10°C° 2.5 mm 7 m/S 753 mmHg 93%
    10:00 +10°C° 2.5 mm 7 m/S 753 mmHg 93%
    11:00 +10°C° 1.3 mm 6 m/S 753 mmHg 93%
    12:00 +10°C° 1.3 mm 6 m/S 753 mmHg 93%
    13:00 +10°C° 1.3 mm 6 m/S 753 mmHg 93%
    14:00 +12°C° 0.2 mm 5 m/S 754 mmHg 91%
    15:00 +12°C° 0.2 mm 5 m/S 754 mmHg 90%
    16:00 +13°C° 0.2 mm 4 m/S 754 mmHg 88%
    17:00 +12°C° 0 mm 4 m/S 754 mmHg 90%
    18:00 +12°C° 0 mm 3 m/S 755 mmHg 92%
    19:00 +11°C° 0 mm 3 m/S 755 mmHg 94%
    20:00 +11°C° 0 mm 3 m/S 755 mmHg 94%
    21:00 +12°C° 0 mm 3 m/S 756 mmHg 93%
    22:00 +12°C° 0 mm 3 m/S 756 mmHg 93%
    23:00 +12°C° 0 mm 3 m/S 756 mmHg 93%

    übermorgen, 17 Oktober, Donnerstag

    Zeit Temperatur Niederschläge Wind Luftdruck Luftfeuchtigkeit
    00:00 +12°C° 0 mm 3 m/S 756 mmHg 93%
    01:00 +12°C° 0 mm 3 m/S 756 mmHg 92%
    02:00 +12°C° 0 mm 3 m/S 756 mmHg 92%
    03:00 +12°C° 0 mm 3 m/S 756 mmHg 91%
    04:00 +12°C° 0 mm 3 m/S 756 mmHg 90%
    05:00 +12°C° 0.3 mm 3 m/S 756 mmHg 91%
    06:00 +12°C° 0.3 mm 3 m/S 756 mmHg 92%
    07:00 +12°C° 0.3 mm 4 m/S 756 mmHg 93%
    08:00 +12°C° 0.2 mm 4 m/S 756 mmHg 92%
    09:00 +13°C° 0.2 mm 4 m/S 756 mmHg 91%
    10:00 +13°C° 0.2 mm 5 m/S 756 mmHg 90%
    11:00 +13°C° 0 mm 4 m/S 757 mmHg 89%
    12:00 +14°C° 0 mm 4 m/S 757 mmHg 89%
    13:00 +14°C° 0 mm 4 m/S 757 mmHg 88%
    14:00 +13°C° 0 mm 4 m/S 757 mmHg 89%
    15:00 +13°C° 0 mm 3 m/S 758 mmHg 90%
    16:00 +14°C° 0 mm 2 m/S 758 mmHg 91%
    17:00 +13°C° 0.1 mm 2 m/S 758 mmHg 93%
    18:00 +12°C° 0.1 mm 2 m/S 758 mmHg 94%
    19:00 +12°C° 0.1 mm 2 m/S 759 mmHg 95%
    20:00 +12°C° 0 mm 2 m/S 759 mmHg 93%
    21:00 +11°C° 0 mm 3 m/S 759 mmHg 91%
    22:00 +11°C° 0 mm 3 m/S 760 mmHg 88%
    23:00 +11°C° 0 mm 3 m/S 760 mmHg 88%

    18 Oktober, Freitag

    Zeit Temperatur Niederschläge Wind Luftdruck Luftfeuchtigkeit
    00:00 +10°C° 0 mm 3 m/S 760 mmHg 87%
    01:00 +10°C° 0 mm 3 m/S 760 mmHg 86%
    02:00 +9°C° 0 mm 2 m/S 760 mmHg 88%
    03:00 +8°C° 0 mm 2 m/S 760 mmHg 90%
    04:00 +8°C° 0 mm 2 m/S 760 mmHg 92%
    05:00 +8°C° 0 mm 2 m/S 759 mmHg 91%
    06:00 +8°C° 0 mm 2 m/S 759 mmHg 91%
    07:00 +8°C° 0 mm 2 m/S 759 mmHg 91%
    08:00 +9°C° 0 mm 3 m/S 759 mmHg 88%
    09:00 +11°C° 0 mm 4 m/S 759 mmHg 84%
    10:00 +12°C° 0 mm 4 m/S 758 mmHg 81%
    11:00 +13°C° 0.1 mm 5 m/S 758 mmHg 82%
    12:00 +14°C° 0.1 mm 5 m/S 758 mmHg 82%
    13:00 +15°C° 0.1 mm 5 m/S 758 mmHg 82%
    14:00 +14°C° 0.3 mm 4 m/S 758 mmHg 83%
    15:00 +14°C° 0.3 mm 4 m/S 758 mmHg 83%
    16:00 +14°C° 0.3 mm 3 m/S 758 mmHg 83%
    17:00 +13°C° 0 mm 3 m/S 758 mmHg 85%
    18:00 +11°C° 0 mm 3 m/S 758 mmHg 87%
    19:00 +10°C° 0 mm 3 m/S 758 mmHg 89%
    20:00 +10°C° 0 mm 3 m/S 759 mmHg 90%
    21:00 +10°C° 0 mm 3 m/S 759 mmHg 91%
    22:00 +9°C° 0 mm 3 m/S 759 mmHg 92%
    23:00 +9°C° 0 mm 3 m/S 759 mmHg 92%

    19 Oktober, Samstag

    Zeit Temperatur Niederschläge Wind Luftdruck Luftfeuchtigkeit
    00:00 +9°C° 0 mm 3 m/S 759 mmHg 92%
    01:00 +9°C° 0 mm 2 m/S 759 mmHg 92%
    02:00 +9°C° 0 mm 3 m/S 759 mmHg 92%
    03:00 +9°C° 0 mm 3 m/S 759 mmHg 92%
    04:00 +9°C° 0 mm 3 m/S 759 mmHg 93%
    05:00 +8°C° 0 mm 3 m/S 759 mmHg 93%
    06:00 +8°C° 0 mm 3 m/S 759 mmHg 93%
    07:00 +8°C° 0 mm 3 m/S 758 mmHg 93%
    08:00 +9°C° 0 mm 3 m/S 758 mmHg 90%
    09:00 +11°C° 0 mm 3 m/S 758 mmHg 87%
    10:00 +12°C° 0 mm 4 m/S 758 mmHg 83%
    11:00 +13°C° 0 mm 4 m/S 758 mmHg 80%
    12:00 +14°C° 0 mm 4 m/S 758 mmHg 77%
    13:00 +15°C° 0 mm 4 m/S 757 mmHg 73%
    14:00 +14°C° 0 mm 3 m/S 757 mmHg 75%
    15:00 +14°C° 0 mm 3 m/S 757 mmHg 77%
    16:00 +14°C° 0 mm 3 m/S 756 mmHg 79%
    17:00 +13°C° 0 mm 3 m/S 756 mmHg 82%
    18:00 +13°C° 0 mm 2 m/S 756 mmHg 85%
    19:00 +12°C° 0 mm 2 m/S 756 mmHg 87%
    20:00 +12°C° 0 mm 3 m/S 755 mmHg 87%
    21:00 +12°C° 0 mm 3 m/S 755 mmHg 86%
    22:00 +12°C° 0 mm 3 m/S 755 mmHg 86%
    23:00 +12°C° 0.2 mm 3 m/S 754 mmHg 87%

    20 Oktober, Sonntag

    Zeit Temperatur Niederschläge Wind Luftdruck Luftfeuchtigkeit
    00:00 +12°C° 0.2 mm 3 m/S 753 mmHg 89%
    01:00 +12°C° 0.2 mm 3 m/S 753 mmHg 91%
    02:00 +12°C° 0.2 mm 3 m/S 752 mmHg 91%
    03:00 +12°C° 0.2 mm 4 m/S 752 mmHg 91%
    04:00 +12°C° 0.2 mm 4 m/S 751 mmHg 92%
    05:00 +12°C° 0.3 mm 4 m/S 751 mmHg 92%
    06:00 +12°C° 0.3 mm 4 m/S 751 mmHg 92%
    07:00 +12°C° 0.3 mm 4 m/S 751 mmHg 92%
    08:00 +13°C° 0 mm 4 m/S 751 mmHg 90%
    09:00 +13°C° 0 mm 4 m/S 752 mmHg 88%
    10:00 +13°C° 0 mm 4 m/S 752 mmHg 86%
    11:00 +14°C° 0 mm 4 m/S 752 mmHg 84%
    12:00 +14°C° 0 mm 4 m/S 752 mmHg 82%
    13:00 +14°C° 0 mm 5 m/S 752 mmHg 80%
    14:00 +14°C° 0.1 mm 4 m/S 752 mmHg 80%
    15:00 +13°C° 0.1 mm 4 m/S 753 mmHg 80%
    16:00 +13°C° 0.1 mm 4 m/S 753 mmHg 80%
    17:00 +12°C° 0 mm 3 m/S 753 mmHg 83%
    18:00 +11°C° 0 mm 3 m/S 754 mmHg 87%
    19:00 +10°C° 0 mm 2 m/S 755 mmHg 91%
    20:00 +9°C° 0 mm 2 m/S 755 mmHg 91%
    21:00 +9°C° 0 mm 2 m/S 755 mmHg 91%
    22:00 +9°C° 0 mm 3 m/S 756 mmHg 91%
    23:00 +8°C° 0 mm 3 m/S 756 mmHg 91%
    Mehr zeigen